When you browse on this site, cookies collect data to enhance your experience and personalize the content and advertising you see.
Visit our Privacy Policy to learn more. By continuing to use the site, you agree to this use of cookies and data.
  • In United Kingdom
  • List of Countries
  • For 7 days
  • Water Temperature
  • Weather Map
  • Weather Widgets
  • user-avatar
    Login

    Hourly Weather Corabia

    Today, 16 September, Monday

    Time Temperature Precipitation Wind Pressure Humidity
    00:00 +18°C° 0 mm 1 mps 763 mmHg 51%
    01:00 +18°C° 0 mm 1 mps 763 mmHg 52%
    02:00 +16°C° 0 mm 1 mps 763 mmHg 54%
    03:00 +16°C° 0 mm 1 mps 762 mmHg 56%
    04:00 +15°C° 0 mm 1 mps 762 mmHg 58%
    05:00 +15°C° 0 mm 1 mps 762 mmHg 60%
    06:00 +18°C° 0 mm 1 mps 761 mmHg 54%
    07:00 +19°C° 0 mm 1 mps 761 mmHg 49%
    08:00 +20°C° 0 mm 2 mps 761 mmHg 43%
    09:00 +24°C° 0 mm 2 mps 761 mmHg 38%
    10:00 +26°C° 0 mm 3 mps 760 mmHg 32%
    11:00 +29°C° 0 mm 3 mps 760 mmHg 26%
    12:00 +30°C° 0 mm 3 mps 759 mmHg 23%
    13:00 +33°C° 0 mm 3 mps 759 mmHg 21%
    14:00 +34°C° 0 mm 3 mps 758 mmHg 18%
    15:00 +34°C° 0 mm 3 mps 758 mmHg 17%
    16:00 +34°C° 0 mm 3 mps 757 mmHg 16%
    17:00 +35°C° 0 mm 3 mps 757 mmHg 16%
    18:00 +31°C° 0 mm 2 mps 757 mmHg 20%
    19:00 +28°C° 0 mm 2 mps 757 mmHg 24%
    20:00 +25°C° 0 mm 2 mps 758 mmHg 28%
    21:00 +24°C° 0 mm 2 mps 758 mmHg 30%
    22:00 +23°C° 0 mm 2 mps 758 mmHg 33%
    23:00 +21°C° 0 mm 3 mps 758 mmHg 36%

    Tomorrow, 17 September, Tuesday

    Time Temperature Precipitation Wind Pressure Humidity
    00:00 +20°C° 0 mm 3 mps 758 mmHg 38%
    01:00 +19°C° 0 mm 3 mps 758 mmHg 40%
    02:00 +18°C° 0 mm 3 mps 758 mmHg 43%
    03:00 +18°C° 0 mm 3 mps 758 mmHg 45%
    04:00 +17°C° 0 mm 3 mps 757 mmHg 47%
    05:00 +16°C° 0 mm 3 mps 757 mmHg 50%
    06:00 +18°C° 0 mm 3 mps 757 mmHg 46%
    07:00 +20°C° 0 mm 3 mps 758 mmHg 42%
    08:00 +21°C° 0 mm 3 mps 758 mmHg 38%
    09:00 +25°C° 0 mm 3 mps 758 mmHg 33%
    10:00 +28°C° 0 mm 3 mps 757 mmHg 29%
    11:00 +31°C° 0 mm 3 mps 757 mmHg 24%
    12:00 +33°C° 0 mm 3 mps 757 mmHg 21%
    13:00 +35°C° 0 mm 4 mps 756 mmHg 19%
    14:00 +36°C° 0 mm 4 mps 755 mmHg 17%
    15:00 +36°C° 0 mm 4 mps 755 mmHg 17%
    16:00 +36°C° 0 mm 4 mps 755 mmHg 17%
    17:00 +36°C° 0 mm 3 mps 754 mmHg 17%
    18:00 +33°C° 0 mm 3 mps 755 mmHg 21%
    19:00 +29°C° 0 mm 2 mps 755 mmHg 24%
    20:00 +26°C° 0 mm 1 mps 755 mmHg 28%
    21:00 +25°C° 0 mm 1 mps 755 mmHg 31%
    22:00 +24°C° 0 mm 1 mps 755 mmHg 35%
    23:00 +23°C° 0 mm 1 mps 756 mmHg 38%

    Day after tomorrow, 18 September, Wednesday

    Time Temperature Precipitation Wind Pressure Humidity
    00:00 +22°C° 0 mm 1 mps 755 mmHg 40%
    01:00 +20°C° 0 mm 2 mps 755 mmHg 43%
    02:00 +20°C° 0 mm 2 mps 755 mmHg 45%
    03:00 +19°C° 0 mm 2 mps 756 mmHg 47%
    04:00 +19°C° 0 mm 2 mps 756 mmHg 50%
    05:00 +18°C° 0 mm 2 mps 756 mmHg 52%
    06:00 +19°C° 0 mm 3 mps 756 mmHg 50%
    07:00 +21°C° 0 mm 3 mps 757 mmHg 47%
    08:00 +22°C° 0 mm 4 mps 757 mmHg 45%
    09:00 +25°C° 0 mm 5 mps 758 mmHg 40%
    10:00 +27°C° 0 mm 6 mps 758 mmHg 35%
    11:00 +29°C° 0 mm 7 mps 759 mmHg 30%
    12:00 +29°C° 0 mm 7 mps 759 mmHg 30%
    13:00 +28°C° 0 mm 7 mps 759 mmHg 30%
    14:00 +28°C° 0 mm 7 mps 759 mmHg 30%
    15:00 +27°C° 0 mm 7 mps 759 mmHg 30%
    16:00 +24°C° 0 mm 7 mps 759 mmHg 31%
    17:00 +22°C° 0 mm 7 mps 760 mmHg 31%
    18:00 +21°C° 0 mm 6 mps 760 mmHg 31%
    19:00 +19°C° 0 mm 6 mps 761 mmHg 32%
    20:00 +17°C° 0 mm 5 mps 761 mmHg 32%
    21:00 +17°C° 0 mm 4 mps 762 mmHg 35%
    22:00 +17°C° 0 mm 4 mps 762 mmHg 37%
    23:00 +16°C° 0 mm 3 mps 762 mmHg 39%

    19 September, Thursday

    Time Temperature Precipitation Wind Pressure Humidity
    00:00 +16°C° 0 mm 3 mps 763 mmHg 40%
    01:00 +14°C° 0 mm 3 mps 763 mmHg 41%
    02:00 +14°C° 0 mm 3 mps 763 mmHg 41%
    03:00 +14°C° 0 mm 3 mps 763 mmHg 41%
    04:00 +15°C° 0 mm 2 mps 763 mmHg 40%
    05:00 +15°C° 0 mm 2 mps 763 mmHg 40%
    06:00 +15°C° 0 mm 2 mps 763 mmHg 40%
    07:00 +15°C° 0 mm 2 mps 763 mmHg 40%
    08:00 +14°C° 0 mm 3 mps 763 mmHg 40%
    09:00 +16°C° 0 mm 3 mps 763 mmHg 38%
    10:00 +17°C° 0 mm 3 mps 763 mmHg 37%
    11:00 +17°C° 0 mm 3 mps 763 mmHg 35%
    12:00 +19°C° 0 mm 3 mps 763 mmHg 31%
    13:00 +21°C° 0 mm 3 mps 762 mmHg 27%
    14:00 +24°C° 0 mm 3 mps 761 mmHg 23%
    15:00 +24°C° 0 mm 3 mps 761 mmHg 22%
    16:00 +25°C° 0 mm 3 mps 761 mmHg 21%
    17:00 +25°C° 0 mm 3 mps 761 mmHg 19%
    18:00 +22°C° 0 mm 3 mps 761 mmHg 22%
    19:00 +20°C° 0 mm 2 mps 761 mmHg 24%
    20:00 +17°C° 0 mm 2 mps 762 mmHg 27%
    21:00 +17°C° 0 mm 3 mps 762 mmHg 28%
    22:00 +15°C° 0 mm 4 mps 762 mmHg 29%
    23:00 +14°C° 0 mm 4 mps 762 mmHg 30%

    20 September, Friday

    Time Temperature Precipitation Wind Pressure Humidity
    00:00 +14°C° 0 mm 5 mps 762 mmHg 32%
    01:00 +13°C° 0 mm 5 mps 762 mmHg 33%
    02:00 +13°C° 0 mm 5 mps 763 mmHg 34%
    03:00 +11°C° 0 mm 4 mps 763 mmHg 38%
    04:00 +10°C° 0 mm 4 mps 763 mmHg 43%
    05:00 +9°C° 0 mm 3 mps 763 mmHg 47%
    06:00 +10°C° 0 mm 3 mps 763 mmHg 45%
    07:00 +12°C° 0 mm 2 mps 764 mmHg 44%
    08:00 +13°C° 0 mm 2 mps 764 mmHg 43%
    09:00 +15°C° 0 mm 2 mps 764 mmHg 38%
    10:00 +17°C° 0 mm 2 mps 764 mmHg 34%
    11:00 +19°C° 0 mm 2 mps 764 mmHg 30%
    12:00 +20°C° 0 mm 2 mps 764 mmHg 27%
    13:00 +21°C° 0 mm 3 mps 764 mmHg 24%
    14:00 +21°C° 0 mm 3 mps 763 mmHg 22%
    15:00 +22°C° 0 mm 3 mps 763 mmHg 20%
    16:00 +22°C° 0 mm 3 mps 763 mmHg 19%
    17:00 +22°C° 0 mm 3 mps 763 mmHg 18%
    18:00 +19°C° 0 mm 3 mps 764 mmHg 21%
    19:00 +17°C° 0 mm 3 mps 765 mmHg 23%
    20:00 +14°C° 0 mm 4 mps 766 mmHg 26%
    21:00 +13°C° 0 mm 4 mps 766 mmHg 32%
    22:00 +12°C° 0 mm 4 mps 767 mmHg 38%
    23:00 +11°C° 0 mm 3 mps 767 mmHg 44%

    21 September, Saturday

    Time Temperature Precipitation Wind Pressure Humidity
    00:00 +9°C° 0 mm 3 mps 768 mmHg 48%
    01:00 +8°C° 0 mm 2 mps 768 mmHg 53%
    02:00 +7°C° 0 mm 2 mps 769 mmHg 57%
    03:00 +7°C° 0 mm 2 mps 769 mmHg 57%
    04:00 +8°C° 0 mm 1 mps 769 mmHg 58%
    05:00 +7°C° 0 mm 1 mps 769 mmHg 58%
    06:00 +9°C° 0 mm 1 mps 770 mmHg 53%
    07:00 +9°C° 0 mm 2 mps 770 mmHg 48%
    08:00 +10°C° 0 mm 2 mps 770 mmHg 43%
    09:00 +14°C° 0 mm 2 mps 770 mmHg 38%
    10:00 +16°C° 0 mm 3 mps 770 mmHg 32%
    11:00 +18°C° 0 mm 3 mps 770 mmHg 27%
    12:00 +19°C° 0 mm 3 mps 769 mmHg 24%
    13:00 +20°C° 0 mm 2 mps 769 mmHg 21%
    14:00 +21°C° 0 mm 2 mps 768 mmHg 19%
    15:00 +21°C° 0 mm 2 mps 768 mmHg 19%
    16:00 +21°C° 0 mm 2 mps 768 mmHg 18%
    17:00 +21°C° 0 mm 2 mps 768 mmHg 18%
    18:00 +18°C° 0 mm 2 mps 768 mmHg 22%
    19:00 +16°C° 0 mm 2 mps 769 mmHg 25%
    20:00 +13°C° 0 mm 2 mps 769 mmHg 29%
    21:00 +13°C° 0 mm 2 mps 770 mmHg 31%
    22:00 +12°C° 0 mm 2 mps 770 mmHg 32%
    23:00 +10°C° 0 mm 2 mps 770 mmHg 33%
    Show more